Miscellaneous Local Product
Issued by NWS Hastings, NE

Home | Current Version | Previous Version | Graphics & Text | Print | Product List | Glossary On
Versions: 1 2 3 4 5 6 7 8 9 10 11 12 13 14 15 16 17 18 19 20 21 22 23 24 25 26 27 28 29 30 31 32 33 34 35 36 37 38 39 40 41 42 43 44 45 46 47 48 49 50
815
AXUS43 KGID 090102
MISGRI

GID CWA HOURLY WEATHER ROUNDUP
NATIONAL WEATHER SERVICE HASTINGS NE
700 PM CST THU DEC 08 2016

NOTE: "FAIR" INDICATES FEW OR NO CLOUDS BELOW 12,000 FEET WITH NO
SIGNIFICANT WEATHER AND/OR OBSTRUCTIONS TO VISIBILITY.

...SOUTH CENTRAL NEBRASKA...

CITY           SKY/WX    TMP DP  RH WIND       PRES   REMARKS
GRAND ISLAND   CLEAR     12   3  67 NW5       30.60F WCI   4
HASTINGS       CLEAR     15   3  59 CALM      30.61R
KEARNEY        CLEAR     16   0  48 CALM      30.59R
ORD            CLEAR      8  -2  63 NW5       30.58S WCI   0
YORK           CLEAR     14   5  67 N3        30.62R
AURORA         CLEAR     11   1  64 NW3       30.60S
LEXINGTON      CLEAR     12   0  59 CALM      30.57R
HOLDREGE       CLEAR     14   3  62 W3        30.58R
HEBRON         CLEAR     16   7  66 CALM      30.64R

...NEBRASKA PANHANDLE...

CITY           SKY/WX    TMP DP  RH WIND       PRES   REMARKS
CHADRON        CLOUDY     4  -5  66 NE6       30.44F WCI  -7
ALLIANCE       CLOUDY     1  -5  75 SE9       30.38F WCI -14
SCOTTSBLUFF    CLOUDY     7  -2  66 E8        30.37F WCI  -6
SIDNEY         CLOUDY     0  -5  79 SE9       30.37F WCI -15

...WESTERN AND NORTH CENTRAL NEBRASKA...

CITY           SKY/WX    TMP DP  RH WIND       PRES   REMARKS
VALENTINE      CLEAR      4  -5  66 NW6       30.56S WCI  -7
AINSWORTH      CLEAR      5  -3  70 CALM      30.56S
ONEILL         CLEAR      8   1  73 N5        30.59S WCI  -1
BROKEN BOW     CLEAR      6  -2  69 NW7       30.55S WCI  -6
IMPERIAL       CLOUDY     7  -2  66 SE3       30.51S
NORTH PLATTE   CLEAR      9  -1  64 CALM      30.54S
MCCOOK         CLOUDY    10   2  69 SW8       30.58R WCI  -2

...EASTERN NEBRASKA...

CITY           SKY/WX    TMP DP  RH WIND       PRES   REMARKS
NORFOLK        CLEAR     12   2  64 W6        30.61S WCI   3
SO SIOUX CITY  CLEAR     16   7  67 NW9       30.63R WCI   4
TEKAMAH        CLEAR     18   7  62 NW14      30.63S WCI   4
COLUMBUS       CLEAR     14   1  57 NW5       30.62S WCI   6
ALBION         CLEAR     12   2  65 NW3       30.61R
OMAHA EPPLEY   CLEAR     17   7  64 NW8       30.64R WCI   7
OFFUTT AFB     CLEAR     17   7  65 NW6       30.63R WCI   9
MILLARD        CLEAR     22  10  57 NW5       30.63S WCI  16
LINCOLN        CLEAR     13   6  74 CALM      30.65S
NEBRASKA CITY  CLEAR     17   6  60 NW6       30.63R WCI   9
BEATRICE       CLEAR     15   7  70 NW7       30.63S WCI   6
FALLS CITY     CLEAR     18   9  68 W9        30.63S WCI   7

...NORTHERN KANSAS...

CITY           SKY/WX    TMP DP  RH WIND       PRES   REMARKS
GOODLAND       CLOUDY     4  -3  73 SE9       30.48S WCI -10
HILL CITY      CLOUDY     6  -1  73 N6        30.61S WCI  -4
NORTON         CLEAR      9  -2  61 W7        30.59  WCI  -3
PHILLIPSBURG   CLEAR     10   3  72 W3        30.63S
SMITH CENTER   CLEAR     12   7  79 W3        30.63S
BELOIT         CLEAR     16   7  67 W3        30.64S
HAYS           CLEAR     14   4  64 NE5       30.62S WCI   6
RUSSELL        CLEAR     17   6  62 N5        30.62S WCI  10
CONCORDIA      CLEAR     20   8  60 N5        30.64R WCI  13
SALINA         CLEAR     18   9  68 W8        30.66S WCI   8
TOPEKA         CLEAR     21  10  62 NW5       30.66R WCI  15



USA.gov is the U.S. government's official web portal to all federal, state and local government web resources and services.